Home   Weather   Prievidza   Past weeks

Flag for Slovakia Past Weather in Prievidza, Slovakia — Yesterday and Last 2 Weeks

Now
5 °F

Frigid.


Feels Like: N/A
Forecast: 9 / 29 °F
Wind: N/A

Location: Prievidza

Current Time: Jan 23, 2017 at 3:32:53 am

Latest Report: Jan 23, 2017 at 2:00 am


Visibility: 1 mi

Pressure: 30.57 "Hg

Humidity: 87%

Dew Point: 2 °F

Location of PrievidzaLocation

Past Weather in Prievidza — Graph

°F

Prievidza Temperature Yesterday

Maximum temperature yesterday: 36 °F (at 3:00 pm)
Minimum temperature yesterday: 4 °F (at 8:00 am)
Average temperature yesterday: 15 °F

High & Low Weather Summary for the Past Weeks

 TemperatureHumidityPressure
High38 °F (Jan 14, 12:00 pm)95% (Jan 13, 11:00 pm)30.76 "Hg (Jan 13, 11:00 pm)
Low-5 °F (Jan 11, 5:00 am)36% (Jan 8, 1:00 pm)29.47 "Hg (Jan 14, 12:00 am)
Average18 °F75%30.29 "Hg
* Reported Jan 8 2:00 am — Jan 23 2:00 am, Prievidza, Weather by CustomWeather, © 2017

Note: Actual official high and low records may vary slightly from our data, if they occured in-between our weather recording intervals... More about our weather records

Advertising

Prievidza Weather History for the Previous 24 Hours

Scroll right to see more
 ConditionsComfort  
Time TempWeatherWind HumidityBarometerVisibility
2:00 am
Mon, Jan 23
5 °FFrigid.N/A87%30.57 "Hg1 mi
1:00 am6 °FFog.No wind87%30.58 "Hg2 mi
12:00 am7 °FFog.No wind85%30.59 "Hg2 mi
11:00 pm
Sun, Jan 22
8 °FFog.No wind87%30.60 "Hg2 mi
10:00 pm10 °FFog.No wind86%30.59 "Hg3 mi
9:00 pm12 °FFog.No wind84%30.59 "Hg2 mi
8:00 pm12 °FFog.No wind82%30.59 "Hg2 mi
7:00 pm16 °FFog.1 mph80%30.58 "Hg3 mi
6:00 pm20 °FFog.No wind76%30.58 "Hg4 mi
5:00 pm25 °FFog.N/A70%30.56 "Hg4 mi
4:00 pm32 °FSunny.1 mph54%30.54 "Hg7 mi
3:00 pm36 °FSunny.No wind53%30.53 "Hg7 mi
2:00 pm35 °FSunny.No wind54%30.55 "Hg9 mi
1:00 pm33 °FFog.1 mph55%30.56 "Hg6 mi
12:00 pm29 °FFog.No wind62%30.59 "Hg4 mi
11:00 am22 °FFog.No wind80%30.63 "Hg3 mi
10:00 am15 °FFog.No wind81%30.64 "Hg3 mi
9:00 am7 °FFog.No wind87%30.66 "Hg4 mi
8:00 am4 °FFog.No wind82%30.66 "Hg4 mi
7:00 am4 °FFog.No wind84%30.66 "Hg4 mi
6:00 am5 °FFog.No wind85%30.66 "Hg4 mi
5:00 am5 °FFog.No wind84%30.67 "Hg3 mi
4:00 am5 °FFog.No wind84%30.67 "Hg3 mi
3:00 am4 °FFog.1 mph82%30.67 "Hg3 mi
Weather by CustomWeather, © 2017

See weather overviewHow to use our weather pages